Flag for Canada Weather past 2 weeks in Regina, Saskatchewan, Canada

Now
68 °F

Thunderstorms. Broken clouds.


Feels Like: 68 °F
Forecast: 59 / 78 °F
Wind: 7 mph from East

Location: Regina Weather Station

Current Time: Jul 4, 2015 at 2:06:42 PM

Latest Report: Jul 4, 2015 at 1:00 PM


Visibility: 15 mi

Pressure: 29.79 "Hg (27.85 "Hg at 577m altitude)

Humidity: 88%

Dew point: 64 °F

Location of ReginaLocation

Historic Weather in Regina — Graph

°F

Regina temperature yesterday

Maximum temperature yesterday: 84 °F (at 3:00 PM)
Minimum temperature yesterday: 57 °F (at 3:00 AM)
Average temperature yesterday: 71 °F

Past Weeks' High & Low Weather Summary

 TemperatureHumidityPressure
High90 °F (Jun 28, 4:00 PM)100% (Jun 20, 2:00 AM)30.11 "Hg (Jun 20, 2:00 AM)
Low45 °F (Jun 21, 2:00 AM)26% (Jun 25, 4:00 PM)29.72 "Hg (Jun 19, 5:00 PM)
Average67 °F68%29.96 "Hg
* Reported Jun 19 1:00 PM — Jul 4 1:00 PM, Regina, Weather by CustomWeather, © 2015

Note: Actual official high and low records may vary slightly from our data, if they occured in-between our weather recording intervals... More about our weather records

Advertising

Regina weather history for previous 24 hours

 ConditionsComfort  
Time TempWeatherWind HumidityBarometerVisibility
1:00 PM
Sat, Jul 4
68 °FThunderstorms. Broken clouds.7 mph88%29.79 "Hg15 mi
12:00 PM72 °FMostly cloudy.17 mph65%29.77 "Hg15 mi
11:00 AM73 °FBroken clouds.7 mph69%29.76 "Hg15 mi
10:00 AM72 °FSprinkles. Mostly cloudy.8 mph73%29.76 "Hg12 mi
9:00 AM72 °FBroken clouds.8 mph69%29.75 "Hg10 mi
8:00 AM72 °FBroken clouds.6 mph69%29.72 "Hg10 mi
7:00 AM66 °FPartly sunny.5 mph88%29.73 "Hg10 mi
6:00 AM66 °FFog.7 mph88%29.72 "Hg3 mi
5:00 AM64 °FFog.7 mph94%29.75 "Hg2 mi
4:00 AM64 °FScattered showers. Overcast.9 mph100%29.75 "Hg8 mi
3:00 AM64 °FThunderstorms. Mostly cloudy.6 mph100%29.78 "Hg6 mi
2:00 AM66 °FSprinkles. Mostly cloudy.16 mph88%29.79 "Hg6 mi
1:00 AM68 °FSprinkles. Partly cloudy.10 mph83%29.75 "Hg5 mi
12:00 AM68 °FPassing clouds.9 mph83%29.77 "Hg4 mi
11:00 PM
Fri, Jul 3
70 °FPassing clouds.9 mph83%29.76 "Hg3 mi
10:00 PM73 °FPassing clouds.15 mph74%29.77 "Hg3 mi
9:00 PM73 °FScattered clouds.10 mph69%29.79 "Hg2 mi
8:00 PM79 °FScattered clouds.13 mph61%29.79 "Hg3 mi
7:00 PM81 °FPartly sunny.10 mph54%29.81 "Hg3 mi
6:00 PM84 °FPartly sunny.8 mph43%29.83 "Hg4 mi
5:00 PM82 °FBroken clouds.9 mph48%29.84 "Hg3 mi
4:00 PM84 °FBroken clouds.10 mph43%29.86 "Hg4 mi
3:00 PM84 °FBroken clouds.8 mph43%29.88 "Hg4 mi
2:00 PM82 °FPartly sunny.6 mph45%29.90 "Hg2 mi
Weather by CustomWeather, © 2015

See weather overviewHow to use our weather pages